Location: Proctor
(47.8934°N, 114.3048°W)
Time: 02:29:39
(UTC+00:00)

NOAA 15 - Visible Passes

Search period start: 26 June 2022 00:00
Search period end: 06 July 2022 00:00
Orbit: 798 x 811 km, 98.6° (Epoch: 25 June)

Date Brightness Start Highest point End Pass type
(mag) Time Alt. Az. Time Alt. Az. Time Alt. Az.
27 Jun 7.7 04:19:43 10° W 04:20:47 11° W 04:21:51 10° WNW visible
01 Jul 7.6 04:18:04 10° W 04:19:26 11° W 04:20:48 10° WNW visible
05 Jul 7.6 04:16:28 10° WSW 04:18:04 11° W 04:19:41 10° WNW visible
